H1 CPF 2 NER 2022 6 26 9 177 01 glonass139 H2 1808601 9139 43687 2022 6 26 0 0 0 2022 6 29 23 45 0 900 1 1 0 0 0 1 H9 10 0 59756 0.00000 0 -10880817.573 16191845.719 16453975.611 10 0 59756 900.00000 0 -12379954.343 17328124.944 14058795.484 10 0 59756 1800.00000 0 -13548194.032 18377633.266 11390856.825 10 0 59756 2700.00000 0 -14383099.220 19280713.185 8501842.739 10 0 59756 3600.00000 0 -14894923.194 19980419.381 5447764.336 10 0 59756 4500.00000 0 -15105943.702 20425011.836 2287880.133 10 0 59756 5400.00000 0 -15049299.782 20570251.818 -916451.406 10 0 59756 6300.00000 0 -14767380.589 20381403.054 -4102964.013 10 0 59756 7200.00000 0 -14309834.210 19834852.395 -7209696.987 10 0 59756 8100.00000 0 -13731280.798 18919280.087 -10176205.662 10 0 59756 9000.00000 0 -13088827.124 17636328.504 -12944744.713 10 0 59756 9900.00000 0 -12439488.275 16000739.492 -15461400.338 10 0 59756 10800.00000 0 -11837626.364 14039952.798 -17677148.438 10 0 59756 11700.00000 0 -11332515.464 11793180.982 -19548817.443 10 0 59756 12600.00000 0 -10966136.653 9309998.434 -21039936.290 10 0 59756 13500.00000 0 -10771297.264 6648502.658 -22121450.611 10 0 59756 14400.00000 0 -10770154.544 3873124.047 -22772292.859 10 0 59756 15300.00000 0 -10973206.731 1052175.290 -22979795.066 10 0 59756 16200.00000 0 -11378794.547 -1744757.575 -22739936.205 10 0 59756 17100.00000 0 -11973134.452 -4449473.915 -22057419.355 10 0 59756 18000.00000 0 -12730882.287 -6997756.302 -20945577.300 10 0 59756 18900.00000 0 -13616203.453 -9331799.418 -19426108.576 10 0 59756 19800.00000 0 -14584304.228 -11402369.293 -17528649.277 10 0 59756 20700.00000 0 -15583359.201 -13170603.385 -15290189.265 10 0 59756 21600.00000 0 -16556753.019 -14609377.412 -12754344.494 10 0 59756 22500.00000 0 -17445541.274 -15704183.061 -9970500.013 10 0 59756 23400.00000 0 -18191026.089 -16453481.368 -6992840.932 10 0 59756 24300.00000 0 -18737337.139 -16868518.842 -3879290.830 10 0 59756 25200.00000 0 -19033908.744 -16972615.995 -690378.899 10 0 59756 26100.00000 0 -19037748.169 -16799960.230 2511941.349 10 0 59756 27000.00000 0 -18715399.349 -16393955.818 5665498.284 10 0 59756 27900.00000 0 -18044519.263 -15805202.211 8709109.395 10 0 59756 28800.00000 0 -17015000.733 -15089187.224 11583765.793 10 0 59756 29700.00000 0 -15629594.675 -14303793.322 14233771.113 10 0 59756 30600.00000 0 -13904005.806 -13506722.515 16607813.126 10 0 59756 31500.00000 0 -11866457.929 -12752948.363 18659947.939 10 0 59756 32400.00000 0 -9556746.813 -12092301.911 20350478.708 10 0 59756 33300.00000 0 -7024819.733 -11567292.334 21646713.055 10 0 59756 34200.00000 0 -4328940.169 -11211252.970 22523585.671 10 0 59756 35100.00000 0 -1533512.847 -11046889.630 22964135.278 10 0 59756 36000.00000 0 1293341.964 -11085291.293 22959827.666 10 0 59756 36900.00000 0 4082365.840 -11325444.145 22510719.189 10 0 59756 37800.00000 0 6765786.192 -11754269.147 21625457.843 10 0 59756 38700.00000 0 9279879.881 -12347181.822 20321121.708 10 0 59756 39600.00000 0 11567371.696 -13069151.362 18622897.290 10 0 59756 40500.00000 0 13579569.593 -13876215.568 16563603.058 10 0 59756 41400.00000 0 15278149.091 -14717389.099 14183066.173 10 0 59756 42300.00000 0 16636513.214 -15536885.943 11527363.210 10 0 59756 43200.00000 0 17640671.735 -16276563.586 8647938.283 10 0 59756 44100.00000 0 18289603.122 -16878486.642 5600614.522 10 0 59756 45000.00000 0 18595083.888 -17287502.132 2444517.292 10 0 59756 45900.00000 0 18580992.347 -17453717.601 -759070.481 10 0 59756 46800.00000 0 18282115.860 -17334776.752 -3947898.814 10 0 59756 47700.00000 0 17742511.663 -16897835.394 -7059963.545 10 0 59756 48600.00000 0 17013490.446 -16121152.773 -10034717.532 10 0 59756 49500.00000 0 16151308.041 -14995229.336 -12814255.888 10 0 59756 50400.00000 0 15214663.107 -13523441.107 -15344451.240 10 0 59756 51300.00000 0 14262107.173 -11722142.038 -17576016.107 10 0 59756 52200.00000 0 13349477.114 -9620228.252 -19465470.904 10 0 59756 53100.00000 0 12527459.302 -7258180.993 -20975997.984 10 0 59756 54000.00000 0 11839388.966 -4686627.081 -22078164.673 10 0 59756 54900.00000 0 11319378.267 -1964476.154 -22750500.826 10 0 59756 55800.00000 0 10990852.498 843288.090 -22979919.516 10 0 59756 56700.00000 0 10865556.388 3668070.923 -22761972.618 10 0 59756 57600.00000 0 10943072.448 6440281.472 -22100936.352 10 0 59756 58500.00000 0 11210871.474 9091990.579 -21009725.247 10 0 59756 59400.00000 0 11644892.697 11559521.089 -19509636.368 10 0 59756 60300.00000 0 12210628.554 13785862.910 -17629928.961 10 0 59756 61200.00000 0 12864667.608 15722812.466 -15407248.009 10 0 59756 62100.00000 0 13556629.721 17332747.990 -12884903.266 10 0 59756 63000.00000 0 14231410.898 18589967.434 -10112018.186 10 0 59756 63900.00000 0 14831642.175 19481534.215 -7142565.949 10 0 59756 64800.00000 0 15300257.835 20007596.945 -4034311.932 10 0 59756 65700.00000 0 15583063.786 20181171.488 -847683.861 10 0 59756 66600.00000 0 15631197.058 20027396.326 2355407.594 10 0 59756 67500.00000 0 15403372.182 19582294.465 5512774.300 10 0 59756 68400.00000 0 14867819.495 18891095.712 8563158.323 10 0 59756 69300.00000 0 14003833.603 18006191.418 11447418.040 10 0 59756 70200.00000 0 12802866.906 16984808.919 14109669.731 10 0 59756 71100.00000 0 11269122.232 15886504.192 16498362.959 10 0 59756 72000.00000 0 9419619.789 14770578.397 18567269.463 10 0 59756 72900.00000 0 7283735.405 13693526.600 20276367.440 10 0 59756 73800.00000 0 4902228.895 12706625.129 21592605.239 10 0 59756 74700.00000 0 2325802.418 11853757.851 22490530.862 10 0 59756 75600.00000 0 -386752.308 11169571.365 22952776.282 10 0 59756 76500.00000 0 -3170742.305 10678035.294 22970388.200 10 0 59756 77400.00000 0 -5958007.880 10391467.035 22542999.463 10 0 59756 78300.00000 0 -8679504.238 10310061.097 21678838.152 10 0 59756 79200.00000 0 -11267924.942 10421942.440 20394573.985 10 0 59756 80100.00000 0 -13660260.023 10703741.649 18715004.448 10 0 59756 81000.00000 0 -15800184.111 11121668.216 16672585.813 10 0 59756 81900.00000 0 -17640176.546 11633037.596 14306816.900 10 0 59756 82800.00000 0 -19143285.978 12188188.672 11663486.240 10 0 59756 83700.00000 0 -20284466.382 12732711.766 8793795.944 10 0 59756 84600.00000 0 -21051428.786 13209894.003 5753378.047 10 0 59756 85500.00000 0 -21444972.850 13563279.217 2601221.648 10 0 59757 0.00000 0 -21478784.097 13739234.289 -601468.643 10 0 59757 900.00000 0 -21178704.860 13689413.038 -3792462.656 10 0 59757 1800.00000 0 -20581509.300 13373012.393 -6909715.306 10 0 59757 2700.00000 0 -19733233.946 12758724.439 -9892579.641 10 0 59757 3600.00000 0 -18687133.985 11826299.888 -12682993.682 10 0 59757 4500.00000 0 -17501351.801 10567655.249 -15226618.730 10 0 59757 5400.00000 0 -16236396.493 8987474.974 -17473905.880 10 0 59757 6300.00000 0 -14952541.218 7103281.316 -19381069.163 10 0 59757 7200.00000 0 -13707248.743 4944967.179 -20910945.652 10 0 59757 8100.00000 0 -12552734.339 2553810.044 -22033725.281 10 0 59757 9000.00000 0 -11533769.171 -18993.052 -22727535.878 10 0 59757 9900.00000 0 -10685817.096 -2714209.042 -22978871.758 10 0 59757 10800.00000 0 -10033583.414 -5466792.919 -22782857.550 10 0 59757 11700.00000 0 -9590036.542 -8208360.001 -22143342.127 10 0 59757 12600.00000 0 -9355943.441 -10869803.442 -21072820.942 10 0 59757 13500.00000 0 -9319937.741 -13383948.053 -19592188.455 10 0 59757 14400.00000 0 -9459116.838 -15688129.956 -17730325.647 10 0 59757 15300.00000 0 -9740141.827 -17726594.605 -15523530.961 10 0 59757 16200.00000 0 -10120792.747 -19452613.536 -13014806.082 10 0 59757 17100.00000 0 -10551912.310 -20830232.013 -10253010.866 10 0 59757 18000.00000 0 -10979654.892 -21835575.321 -7291904.459 10 0 59757 18900.00000 0 -11347944.607 -22457660.196 -4189091.871 10 0 59757 19800.00000 0 -11601037.627 -22698678.804 -1004897.156 10 0 59757 20700.00000 0 -11686079.599 -22573744.944 2198814.109 10 0 59757 21600.00000 0 -11555549.510 -22110114.843 5359839.577 10 0 59757 22500.00000 0 -11169486.332 -21345916.991 8416848.244 10 0 59757 23400.00000 0 -10497404.343 -20328445.900 11310568.134 10 0 59757 24300.00000 0 -9519816.281 -19112092.771 13984930.576 10 0 59757 25200.00000 0 -8229300.265 -17756000.834 16388149.281 10 0 59757 26100.00000 0 -6631065.619 -16321544.228 18473713.876 10 0 59757 27000.00000 0 -4742993.742 -14869736.102 20201279.679 10 0 59757 27900.00000 0 -2595151.871 -13458674.025 21537437.614 10 0 59757 28800.00000 0 -228799.444 -12141128.799 22456350.554 10 0 59757 29700.00000 0 2305072.575 -10962376.385 22940244.980 10 0 59757 30600.00000 0 4947609.967 -9958362.308 22979749.426 10 0 59757 31500.00000 0 7634295.012 -9154274.050 22574073.822 10 0 59757 32400.00000 0 10297388.212 -8563580.015 21731026.599 10 0 59757 33300.00000 0 12868512.491 -8187574.438 20466869.057 10 0 59757 34200.00000 0 15281274.314 -8015446.877 18806009.290 10 0 59757 35100.00000 0 17473814.489 -8024873.259 16780540.664 10 0 59757 36000.00000 0 19391183.889 -8183103.950 14429632.595 10 0 59757 36900.00000 0 20987446.023 -8448503.620 11798784.134 10 0 59757 37800.00000 0 22227419.336 -8772478.710 8938953.549 10 0 59757 38700.00000 0 23087986.538 -9101711.842 5905579.548 10 0 59757 39600.00000 0 23558915.906 -9380609.290 2757512.345 10 0 59757 40500.00000 0 23643159.683 -9553858.191 -444125.262 10 0 59757 41400.00000 0 23356616.454 -9568985.079 -3637124.917 10 0 59757 42300.00000 0 22727366.860 -9378806.800 -6759404.452 10 0 59757 43200.00000 0 21794414.341 -8943668.950 -9750220.373 10 0 59757 44100.00000 0 20605983.616 -8233375.658 -12551356.777 10 0 59757 45000.00000 0 19217448.468 -7228727.394 -15108266.637 10 0 59757 45900.00000 0 17688976.308 -5922599.891 -17371142.396 10 0 59757 46800.00000 0 16082989.001 -4320516.738 -19295894.232 10 0 59757 47700.00000 0 14461547.353 -2440689.621 -20845016.171 10 0 59757 48600.00000 0 12883769.807 -313522.802 -21988322.716 10 0 59757 49500.00000 0 11403394.318 2019398.898 -22703541.291 10 0 59757 50400.00000 0 10066586.237 4506797.330 -22976748.729 10 0 59757 51300.00000 0 8910084.401 7089602.181 -22802643.314 10 0 59757 52200.00000 0 7959763.113 9703187.244 -22184647.072 10 0 59757 53100.00000 0 7229670.013 12279848.708 -21134836.472 10 0 59757 54000.00000 0 6721579.510 14751422.258 -19673703.028 10 0 59757 54900.00000 0 6425079.526 17051929.875 -17829748.682 10 0 59757 55800.00000 0 6318186.701 19120145.845 -15638924.117 10 0 59757 56700.00000 0 6368462.722 20901975.002 -13143921.295 10 0 59757 57600.00000 0 6534583.237 22352544.107 -10393334.376 10 0 59757 58500.00000 0 6768291.663 23437919.353 -7440705.953 10 0 59757 59400.00000 0 7016653.912 24136378.877 -4343477.779 10 0 59757 60300.00000 0 7224517.459 24439188.013 -1161867.041 10 0 59757 61200.00000 0 7337069.704 24350845.989 2042309.195 10 0 59757 62100.00000 0 7302386.593 23888795.208 5206837.900 10 0 59757 63000.00000 0 7073863.155 23082606.767 8270318.532 10 0 59757 63900.00000 0 6612422.981 21972677.903 11173352.201 10 0 59757 64800.00000 0 5888413.211 20608497.241 13859688.543 10 0 59757 65700.00000 0 4883105.158 19046551.593 16277308.429 10 0 59757 66600.00000 0 3589737.451 17347962.594 18379422.099 10 0 59757 67500.00000 0 2014057.775 15575952.238 20125364.394 10 0 59757 68400.00000 0 174340.253 13793242.968 21481370.854 10 0 59757 69300.00000 0 -1899122.797 12059500.214 22421220.881 10 0 59757 70200.00000 0 -4165034.367 10428923.041 22926736.678 10 0 59757 71100.00000 0 -6572570.517 8948082.078 22988129.356 10 0 59757 72000.00000 0 -9063262.312 7654093.544 22604186.158 10 0 59757 72900.00000 0 -11573205.438 6573204.177 21782295.535 10 0 59757 73800.00000 0 -14035507.536 5719844.941 20538309.466 10 0 59757 74700.00000 0 -16382873.271 5096192.191 18896245.170 10 0 59757 75600.00000 0 -18550221.392 4692254.118 16887831.083 10 0 59757 76500.00000 0 -20477226.264 4486478.623 14551904.705 10 0 59757 77400.00000 0 -22110678.951 4446857.258 11933672.711 10 0 59757 78300.00000 0 -23406569.944 4532479.131 9083846.336 10 0 59757 79200.00000 0 -24331806.645 4695469.696 6057667.606 10 0 59757 80100.00000 0 -24865493.434 4883233.023 2913844.446 10 0 59757 81000.00000 0 -24999720.070 5040902.938 -286585.251 10 0 59757 81900.00000 0 -24739824.574 5113899.222 -3481438.787 10 0 59757 82800.00000 0 -24104118.649 5050480.187 -6608599.752 10 0 59757 83700.00000 0 -23123086.417 4804182.637 -9607231.055 10 0 59757 84600.00000 0 -21838089.489 4336044.623 -12418965.601 10 0 59757 85500.00000 0 -20299632.502 3616515.415 -14989050.506 10 0 59758 0.00000 0 -18565262.041 2626970.196 -17267421.534 10 0 59758 900.00000 0 -16697186.465 1360763.059 -19209687.206 10 0 59758 1800.00000 0 -14759719.288 -176226.595 -20777999.650 10 0 59758 2700.00000 0 -12816650.788 -1965580.824 -21941798.837 10 0 59758 3600.00000 0 -10928660.801 -3976863.987 -22678412.203 10 0 59758 4500.00000 0 -9150880.654 -6168657.576 -22973499.062 10 0 59758 5400.00000 0 -7530706.711 -8490066.674 -22821330.861 10 0 59758 6300.00000 0 -6105957.013 -10882635.776 -22224901.902 10 0 59758 7200.00000 0 -4903447.901 -13282594.229 -21195868.434 10 0 59758 8100.00000 0 -3938049.542 -15623337.728 -19754317.504 10 0 59758 9000.00000 0 -3212258.882 -17838042.264 -17928370.249 10 0 59758 9900.00000 0 -2716306.683 -19862301.156 -15753627.647 10 0 59758 10800.00000 0 -2428792.522 -21636674.938 -13272469.860 10 0 59758 11700.00000 0 -2317819.329 -23109047.488 -10533223.201 10 0 59758 12600.00000 0 -2342577.883 -24236689.881 -7589211.545 10 0 59758 13500.00000 0 -2455312.672 -24987945.982 -4497711.224 10 0 59758 14400.00000 0 -2603584.468 -25343469.737 -1318830.414 10 0 59758 15300.00000 0 -2732732.614 -25296963.139 1885664.439 10 0 59758 16200.00000 0 -2788431.770 -24855385.033 5053551.713 10 0 59758 17100.00000 0 -2719234.164 -24038623.184 8123363.414 10 0 59758 18000.00000 0 -2478989.408 -22878644.655 11035575.817 10 0 59758 18900.00000 0 -2029039.397 -21418161.251 13733758.927 10 0 59758 19800.00000 0 -1340095.637 -19708866.909 16165662.793 10 0 59758 20700.00000 0 -393719.996 -17809321.446 18284220.192 10 0 59758 21600.00000 0 816653.373 -15782569.368 20048447.257 10 0 59758 22500.00000 0 2285197.934 -13693592.951 21424225.730 10 0 59758 23400.00000 0 3993698.572 -11606705.221 22384952.873 10 0 59758 24300.00000 0 5912079.791 -9582990.433 22912047.693 10 0 59758 25200.00000 0 7999437.247 -7677897.287 22995304.671 10 0 59758 26100.00000 0 10205530.860 -5939083.652 22633088.875 10 0 59758 27000.00000 0 12472678.926 -4404600.972 21832369.016 10 0 59758 27900.00000 0 14737976.166 -3101492.543 20608587.726 10 0 59758 28800.00000 0 16935745.134 -2044862.966 18985371.063 10 0 59758 29700.00000 0 19000120.672 -1237456.681 16994081.969 10 0 59758 30600.00000 0 20867661.229 -669762.634 14673225.186 10 0 59758 31500.00000 0 22479879.186 -320640.502 12067713.849 10 0 59758 32400.00000 0 23785585.264 -158442.152 9228010.667 10 0 59758 33300.00000 0 24742949.184 -142581.349 6209159.138 10 0 59758 34200.00000 0 25321190.003 -225485.815 3069722.702 10 0 59758 35100.00000 0 25501824.649 -354849.314 -129348.167 10 0 59758 36000.00000 0 25279421.302 -476088.533 -3325899.201 10 0 59758 36900.00000 0 24661824.884 -534900.404 -6457782.676 10 0 59758 37800.00000 0 23669844.101 -479810.915 -9464070.898 10 0 59758 38700.00000 0 22336412.174 -264606.397 -12286248.539 10 0 59758 39600.00000 0 20705255.787 149456.958 -14869359.699 10 0 59758 40500.00000 0 18829127.660 791760.458 -17163086.524 10 0 59758 41400.00000 0 16767676.727 1680828.889 -19122737.544 10 0 59758 42300.00000 0 14585045.349 2823299.953 -20710125.717 10 0 59758 43200.00000 0 12347294.481 4213402.374 -21894318.563 10 0 59758 44100.00000 0 10119764.940 5832966.225 -22652245.404 10 0 59758 45000.00000 0 7964485.579 7651966.426 -22969149.640 10 0 59758 45900.00000 0 5937736.923 9629577.680 -22838877.220 10 0 59758 46800.00000 0 4087872.122 11715697.509 -22263995.705 10 0 59758 47700.00000 0 2453486.074 13852874.033 -21255741.725 10 0 59758 48600.00000 0 1062008.667 15978558.093 -19833798.030 10 0 59758 49500.00000 0 -71220.037 18027585.535 -18025904.663 10 0 59758 50400.00000 0 -943355.125 19934785.575 -15867312.129 10 0 59758 51300.00000 0 -1563917.343 21637605.925 -13400087.534 10 0 59758 52200.00000 0 -1954136.057 23078644.540 -10672287.617 10 0 59758 53100.00000 0 -2145794.202 24207981.781 -7737015.347 10 0 59758 54000.00000 0 -2179625.892 24985215.297 -4651379.038 10 0 59758 54900.00000 0 -2103336.175 25381112.549 -1475374.902 10 0 59758 55800.00000 0 -1969328.222 25378812.106 1729284.460 10 0 59758 56700.00000 0 -1832235.435 24974524.056 4900372.259 10 0 59758 57600.00000 0 -1746363.903 24177701.027 7976356.558 10 0 59758 58500.00000 0 -1763154.035 23010673.612 10897592.320 10 0 59758 59400.00000 0 -1928768.998 21507766.492 13607473.352 10 0 59758 60300.00000 0 -2281911.920 19713933.055 16053522.163 10 0 59758 61200.00000 0 -2851963.729 17682966.264 18188397.143 10 0 59758 62100.00000 0 -3657519.915 15475360.749 19970798.541 10 0 59758 63000.00000 0 -4705387.554 13155915.128 21366256.805 10 0 59758 63900.00000 0 -5990084.744 10791173.949 22347789.218 10 0 59758 64800.00000 0 -7493863.688 8446814.719 22896413.330 10 0 59758 65700.00000 0 -9187257.178 6185087.365 23001508.273 10 0 59758 66600.00000 0 -11030126.587 4062411.102 22661017.692 10 0 59758 67500.00000 0 -12973168.986 2127226.938 21881490.734 10 0 59758 68400.00000 0 -14959822.158 418193.522 20677960.251 10 0 59758 69300.00000 0 -16928489.725 -1037199.955 19073660.072 10 0 59758 70200.00000 0 -18814995.317 -2223547.197 17099585.980 10 0 59758 71100.00000 0 -20555164.940 -3137927.338 14793907.715 10 0 59758 72000.00000 0 -22087430.872 -3789780.196 12201242.139 10 0 59758 72900.00000 0 -23355349.075 -4200259.768 9371800.311 10 0 59758 73800.00000 0 -24309925.067 -4401093.117 6360423.779 10 0 59758 74700.00000 0 -24911650.605 -4432992.562 3225527.913 10 0 59758 75600.00000 0 -25132165.103 -4343688.043 27972.114 10 0 59758 76500.00000 0 -24955471.026 -4185662.791 -3170121.412 10 0 59758 77400.00000 0 -24378650.900 -4013688.267 -6306577.177 10 0 59758 78300.00000 0 -23412054.482 -3882263.243 -9320380.283 10 0 59758 79200.00000 0 -22078946.851 -3843066.283 -12152870.374 10 0 59758 80100.00000 0 -20414631.098 -3942530.593 -14748891.488 10 0 59758 81000.00000 0 -18465081.531 -4219645.256 -17057874.578 10 0 59758 81900.00000 0 -16285144.105 -4704077.380 -19034830.811 10 0 59758 82800.00000 0 -13936379.286 -5414696.103 -20641235.482 10 0 59758 83700.00000 0 -11484637.581 -6358562.326 -21845784.835 10 0 59758 84600.00000 0 -8997469.255 -7530428.270 -22625010.662 10 0 59758 85500.00000 0 -6541476.765 -8912769.191 -22963740.451 10 0 59759 0.00000 0 -4179720.842 -10476346.876 -22855394.114 10 0 59759 900.00000 0 -1969287.248 -12181282.948 -22302111.393 10 0 59759 1800.00000 0 40881.154 -13978595.275 -21314707.818 10 0 59759 2700.00000 0 1811801.299 -15812136.164 -19912460.018 10 0 59759 3600.00000 0 3315837.448 -17620848.998 -18122724.865 10 0 59759 4500.00000 0 4537603.784 -19341249.335 -15980400.108 10 0 59759 5400.00000 0 5474345.567 -20910026.002 -13527237.389 10 0 59759 6300.00000 0 6135784.684 -22266652.764 -10811021.379 10 0 59759 7200.00000 0 6543437.995 -23355900.589 -7884631.601 10 0 59759 8100.00000 0 6729439.290 -24130144.886 -4805005.820 10 0 59759 9000.00000 0 6734916.527 -24551370.759 -1632025.785 10 0 59759 9900.00000 0 6607994.723 -24592792.199 1572652.193 10 0 59759 10800.00000 0 6401510.499 -24240017.602 4746798.510 10 0 59759 11700.00000 0 6170536.232 -23491713.216 7828819.541 10 0 59759 12600.00000 0 5969819.329 -22359737.382 10758951.060 10 0 59759 13500.00000 0 5851245.461 -20868740.670 13480412.668 10 0 59759 14400.00000 0 5861433.006 -19055249.297 15940501.147 10 0 59759 15300.00000 0 6039560.121 -16966270.679 18091602.114 10 0 59759 16200.00000 0 6415515.673 -14657479.560 19892101.310 10 0 59759 17100.00000 0 7008451.503 -12191060.154 21307179.014 10 0 59759 18000.00000 0 7825796.558 -9633293.688 22309473.371 10 0 59759 18900.00000 0 8862774.163 -7051990.703 22879601.041 10 0 59759 19800.00000 0 10102442.937 -4513873.494 23006526.093 10 0 59759 20700.00000 0 11516260.173 -2082015.907 22687770.778 10 0 59759 21600.00000 0 13065145.145 186554.913 21929464.482 10 0 59759 22500.00000 0 14700999.197 2242996.978 20746229.863 10 0 59759 23400.00000 0 16368620.582 4048444.710 19160907.926 10 0 59759 24300.00000 0 18007935.673 5575379.890 17204126.510 10 0 59759 25200.00000 0 19556454.834 6808526.222 14913719.384 10 0 59759 26100.00000 0 20951851.459 7745230.865 12334005.969 10 0 59759 27000.00000 0 22134557.193 8395317.398 9514944.274 10 0 59759 27900.00000 0 23050265.023 8780416.588 6511172.264 10 0 59759 28800.00000 0 23652235.174 8932803.011 3380955.350 10 0 59759 29700.00000 0 23903306.457 8893786.490 185059.743 10 0 59759 30600.00000 0 23777527.531 8711726.193 -3014426.738 10 0 59759 31500.00000 0 23261338.185 8439751.358 -6155303.288 10 0 59759 32400.00000 0 22354249.406 8133285.464 -9176470.328 10 0 59759 33300.00000 0 21068992.061 7847479.194 -12019124.973 10 0 59759 34200.00000 0 19431126.419 7634661.725 -14627913.623 10 0 59759 35100.00000 0 17478127.626 7541919.362 -16952018.359 10 0 59759 36000.00000 0 15257984.437 7608905.209 -18946155.167 10 0 59759 36900.00000 0 12827369.251 7865973.847 -20571463.737 10 0 59759 37800.00000 0 10249455.621 8332721.182 -21796270.976 10 0 59759 38700.00000 0 7591474.294 9016992.360 -22596712.954 10 0 59759 39600.00000 0 4922109.936 9914400.724 -22957202.904 10 0 59759 40500.00000 0 2308847.210 11008378.976 -22870736.095 10 0 59759 41400.00000 0 -184623.086 12270761.152 -22339025.683 10 0 59759 42300.00000 0 -2500829.679 13662871.311 -21372466.949 10 0 59759 43200.00000 0 -4590677.514 15137073.431 -19989930.857 10 0 59759 44100.00000 0 -6415246.121 16638717.351 -18218391.093 10 0 59759 45000.00000 0 -7947155.461 18108398.734 -16092392.185 10 0 59759 45900.00000 0 -9171443.471 19484437.727 -13653369.376 10 0 59759 46800.00000 0 -10085920.227 20705471.704 -10948833.885 10 0 59759 47700.00000 0 -10700985.678 21713052.566 -8031440.002 10 0 59759 48600.00000 0 -11038920.712 22454138.988 -4957952.783 10 0 59759 49500.00000 0 -11132683.496 22883378.481 -1788137.032 10 0 59759 50400.00000 0 -11024263.828 22965083.146 1416409.983 10 0 59759 51300.00000 0 -10762666.807 22674816.116 4593458.816 10 0 59759 52200.00000 0 -10401612.519 22000522.234 7681357.299 10 0 59759 53100.00000 0 -9997050.045 20943155.901 10620225.267 10 0 59759 54000.00000 0 -9604591.601 19516780.234 13353111.403 10 0 59759 54900.00000 0 -9276975.420 17748133.797 15827090.041 10 0 59759 55800.00000 0 -9061664.379 15675683.449 17994277.213 10 0 59759 56700.00000 0 -8998681.218 13348202.932 19812747.199 10 0 59759 57600.00000 0 -9118770.949 10822936.298 21247332.942 10 0 59759 58500.00000 0 -9441967.129 8163422.119 22270296.009 10 0 59759 59400.00000 0 -9976621.732 5437068.017 22861854.363 10 0 59759 60300.00000 0 -10718939.107 2712574.925 23010558.797 10 0 59759 61200.00000 0 -11653033.616 57316.522 22713511.464 10 0 59759 62100.00000 0 -12751509.051 -2465219.193 21976422.732 10 0 59759 63000.00000 0 -13976536.443 -4797821.844 20813505.223 10 0 59759 63900.00000 0 -15281386.317 -6891686.398 19247206.652 10 0 59759 64800.00000 0 -16612352.650 -8708189.808 17307785.827 10 0 59759 65700.00000 0 -17910989.390 -10220243.814 15032738.874 10 0 59759 66600.00000 0 -19116567.138 -11413168.358 12466085.544 10 0 59759 67500.00000 0 -20168647.987 -12285049.658 9657528.106 10 0 59759 68400.00000 0 -21009671.114 -12846568.260 6661497.877 10 0 59759 69300.00000 0 -21587440.593 -13120304.234 3536106.946 10 0 59759 70200.00000 0 -21857410.489 -13139548.705 342024.775 10 0 59759 71100.00000 0 -21784670.181 -12946671.704 -2858698.865 10 0 59759 72000.00000 0 -21345545.059 -12591115.168 -6003841.574 10 0 59759 72900.00000 0 -20528743.622 -12127096.102 -9032222.773 10 0 59759 73800.00000 0 -19336000.928 -11611117.421 -11884900.657 10 0 59759 74700.00000 0 -17782189.546 -11099392.404 -14506327.417 10 0 59759 75600.00000 0 -15894891.729 -10645292.610 -16845439.424 10 0 59759 76500.00000 0 -13713449.280 -10296928.213 -18856660.291 10 0 59759 77400.00000 0 -11287529.867 -10094964.191 -20500796.434 10 0 59759 78300.00000 0 -8675268.992 -10070765.735 -21745807.193 10 0 59759 79200.00000 0 -5941064.738 -10244952.263 -22567434.064 10 0 59759 80100.00000 0 -3153117.192 -10626421.935 -22949676.515 10 0 59759 81000.00000 0 -380815.077 -11211888.524 -22885105.073 10 0 59759 81900.00000 0 2307921.557 -11985950.670 -22375005.565 10 0 59759 82800.00000 0 4849231.813 -12921690.873 -21429351.814 10 0 59759 83700.00000 0 7185729.898 -13981779.035 -20066607.472 10 0 59759 84600.00000 0 9268646.274 -15120033.962 -18313361.069 10 0 59759 85500.00000 0 11059605.306 -16283376.684 -16203801.644 99